Regional Weather Roundup
Issued by NWS Upton, NY

Current Version | Previous Version | Graphics & Text | Print | Product List | Glossary Off
Versions: 1 2 3 4 5 6 7 8 9 10 11 12 13 14 15 16 17 18 19 20 21 22 23 24 25 26 27 28 29 30 31 32 33 34 35 36 37 38 39 40 41 42 43 44 45 46 47 48 49 50

000
ASUS41 KOKX 030904
RWROKX

REGIONAL WEATHER ROUNDUP
NATIONAL WEATHER SERVICE NEW YORK NY
500 AM EDT THU SEP 03 2015

NOTE: "FAIR" INDICATES FEW OR NO CLOUDS BELOW 12,000 FEET WITH NO
SIGNIFICANT WEATHER AND/OR OBSTRUCTIONS TO VISIBILITY.

NYZ071-072-176-178-NJZ106-104-031000-
NEW YORK CITY METRO AREA


CITY           SKY/WX    TMP DP  RH WIND       PRES   REMARKS
CENTRAL PARK   CLEAR     76  65  68 CALM      29.89S
LAGUARDIA APRT CLEAR     78  66  66 N6        29.85S
KENNEDY INTL   CLEAR     75  70  84 NW5       29.86S
NEWARK/LIBERTY PTCLDY    77  66  68 N5        29.86S
BRNX BOT. GARD   N/A     72  64  78 NE2       29.88R
TETERBORO      CLEAR     73  65  75 CALM      29.85S
$$

NYZ177-179-078>081-031000-
LONG ISLAND NEW YORK

CITY           SKY/WX    TMP DP  RH WIND       PRES   REMARKS
FARMINGDALE    CLEAR     72  69  90 CALM      29.85F
ISLIP          CLOUDY    71  69  93 CALM      29.84S FOG
SHIRLEY        MOCLDY    69  67  93 CALM      29.86S FOG
WESTHAMPTON    CLOUDY    64  63  96 CALM      29.87F
MONTAUK POINT    N/A     73  70  90 CALM      29.87S
$$

NYZ052-065-067-031000-
HUDSON VALLEY

CITY           SKY/WX    TMP DP  RH WIND       PRES   REMARKS
WHITE PLAINS   CLEAR     67  65  93 CALM      29.87R
NEWBURGH       CLEAR     66  64  94 CALM      29.90S
MONTGOMERY     PTCLDY    62  61  96 CALM      29.88S FOG
POUGHKEEPSIE   CLEAR     64  61  90 SE3       29.87S
ALBANY         PTCLDY    65  62  90 CALM      29.88S
$$

NJZ001-105-106-008-010-013-015-019>022-104-031000-
NEW JERSEY

CITY           SKY/WX    TMP DP  RH WIND       PRES   REMARKS
NEWARK/LIBERTY PTCLDY    77  66  68 N5        29.86S
TETERBORO      CLEAR     73  65  75 CALM      29.85S
CALDWELL       CLEAR     68  64  87 CALM      29.88S
MORRISTOWN     CLEAR     61  57  88 CALM      29.88S FOG
SOMERVILLE     CLEAR     64  61  90 CALM      29.86S FOG
SUSSEX         CLEAR     62  60  93 CALM      29.90S FOG
ANDOVER          N/A     63  63 100 CALM      29.91S
TRENTON        CLEAR     71  65  81 NW5       29.87S
MILLVILLE      CLEAR     66  65  96 CALM      29.88R FOG
ATLANTIC CITY    N/A     70  67  90 NW5       29.87S
WRIGHTSTOWN    CLEAR     69  68  96 CALM      29.85S
TOMS RIVER     CLEAR     66  63  88 CALM      29.87S
BELMAR         CLEAR     70  63  78 NW5       29.87R
$$

PAZ047>061-062-071-031000-
EASTERN PENNSYLVANIA

CITY           SKY/WX    TMP DP  RH WIND       PRES   REMARKS
PHILADELPHIA   PTCLDY    76  64  66 NW3       29.88S
ALLENTOWN      PTCLDY    68  64  87 CALM      29.90S FOG
SCRANTON       CLEAR     66  61  84 SE6       29.94R HAZE
$$

CTZ002-004>006-009-010-012-RIZ004-006-007-MAZ004-011-015-031000-
SOUTHERN NEW ENGLAND
 IN CT

CITY           SKY/WX    TMP DP  RH WIND       PRES   REMARKS
BRADLEY INTL   CLEAR     65  63  93 CALM      29.85S
HARTFORD       CLEAR     67  64  90 CALM      29.85S
DANBURY        CLEAR     62  59  90 SW3       29.89S
WTRBRY/OXFORD  CLEAR     64  57  77 CALM      29.89S
BRIDGEPORT     CLEAR     70  65  84 N3        29.85F
MERIDEN        CLEAR     64  62  93 CALM      29.86S FOG
NEW HAVEN      CLEAR     66  64  93 CALM      29.86S
CHESTER        NOT AVBL
GROTON         PTCLDY    67  66  97 CALM      29.85S
WILLIMANTIC    CLEAR     63  60  90 CALM      29.86F

 IN RI

CITY           SKY/WX    TMP DP  RH WIND       PRES   REMARKS
PROVIDENCE     CLEAR     67  63  87 CALM      29.85S
BLOCK ISLAND   CLEAR     72  70  94 W12       29.86S
WESTERLY       PTCLDY    64  63  96 CALM      29.86S

 IN MA

CITY           SKY/WX    TMP DP  RH WIND       PRES   REMARKS
BOSTON         PTCLDY    73  65  75 W3        29.83S
WORCESTER      CLEAR     67  63  87 NW7       29.88S
WESTFIELD      CLEAR     64  62  93 CALM      29.86S
PROVINCETOWN     N/A     66  61  82 SW7       29.84S
NANTUCKET        N/A    N/A N/A N/A MISG      29.85F
$$

ANZ330-335-338-340-345-350-353-355-031000-
COASTAL MARINE OBSERVATIONS


STATION/POSITION TIME  SKY/WX   TEMP    WIND        PRES    VSBY  WAVE
                                AIR SEA DIR/SP/G                  HT/PER
                 (UTC)          (F)     (DEG/KT/KT) (MB)    (MI)  (FT/S)
NY HARB ENTRANCE 0750            75 77  270/  6/  6 1010.8          1/ 9
4S FIRE IS       NOT AVBL
20S FIRE ISLAND  0750            75 75  210/  6/  6 1010.9          2/ 7
GREAT SOUTH BAY  0800            76 79  260/  6/  8   N/A
23SW MTP         0850            74 73  220/  6/  8 1010.6          2/ 7
HUDSON CANYON    NOT AVBL
KINGS POINT      0800            74 74   CALM  /  1 1010.2
EXECUTION ROCKS  0800            74      30/  4/  4   N/A
CENTRAL LI SOUND NOT AVBL
EASTERN LI SOUND 0800            72 70  220/  4/  6   N/A
ROBBINS REEF     0800            76     290/  5/  6 1010.0
$$


>>>>>>>>>>>>>>>>>>>>>>>>>>>> KEY <<<<<<<<<<<<<<<<<<<<<<<<<<<
>                                                          <
>     SKY/WX - SKY CONDITION/PRESENT WEATHER               <
>     TMP    - TEMPERATURE IN FAHRENHEIT                   <
>     DP     - DEWPOINT IN FAHRENHEIT                      <
>     RH     - RELATIVE HUMIDITY IN PERCENT                <
>     WIND   - DIRECTION AND SPEED IN MPH                  <
>     PRES   - MEAN SEA LEVEL PRESSURE IN INCHES OF HG     <
>     WCI    - WIND CHILL INDEX                            <
>     VSB    - VISIBILITY IN MILES                         <
>     HX     - HEAT INDEX                                  <
>     TC     - TEMPERATURE IN CELSIUS                      <
>     VRB    - VARIABLE WIND DIRECTION                     <
>                                                          <
>>>>>>>>>>>>>>>>>>>>>>>>>>>> KEY <<<<<<<<<<<<<<<<<<<<<<<<<<<




USA.gov is the U.S. government's official web portal to all federal, state and local government web resources and services.